FW1519 Weather Reports


Display with metric or nautical units.
time (UTC)temp
F
wind
direction
speed
MPH
gust
MPH
rain 1hr
in
rain 24hr
in
rain mn
in
humidity
%
barometer
mb
20260503194229 66 321 10.0 18.0 0.00 0.00 0.00 27 1006.1
20260503193730 66 295 7.0 17.0 0.00 0.00 0.00 27 1006.1
20260503193229 66 316 8.0 16.0 0.00 0.00 0.00 29 1006.1
20260503192728 65 269 9.0 16.0 0.00 0.00 0.00 29 1006.3
20260503192230 65 340 8.0 15.0 0.00 0.00 0.00 28 1006.2
20260503191730 65 347 8.0 17.0 0.00 0.00 0.00 29 1006.2
20260503191229 65 288 9.0 17.0 0.00 0.00 0.00 29 1006.3
20260503190728 65 297 9.0 21.0 0.00 0.00 0.00 29 1006.4
20260503190229 65 278 10.0 21.0 0.00 0.00 0.00 28 1006.6
20260503185729 65 288 11.0 20.0 0.00 0.00 0.00 28 1006.6
20260503183729 65 279 11.0 18.0 0.00 0.00 0.00 27 1006.9
20260503183230 64 317 11.0 22.0 0.00 0.00 0.00 27 1006.9
20260503182730 64 323 11.0 22.0 0.00 0.00 0.00 26 1007.1
20260503182229 64 256 12.0 18.0 0.00 0.00 0.00 25 1007.0
20260503181730 64 301 11.0 23.0 0.00 0.00 0.00 25 1007.0
20260503181230 64 336 11.0 23.0 0.00 0.00 0.00 25 1007.1
20260503180729 64 320 10.0 20.0 0.00 0.00 0.00 24 1007.1
20260503180233 64 344 11.0 24.0 0.00 0.00 0.00 24 1007.1
20260503175731 64 329 12.0 24.0 0.00 0.00 0.00 24 1007.2
20260503175230 64 318 12.0 22.0 0.00 0.00 0.00 24 1007.2
20260503174728 64 308 10.0 19.0 0.00 0.00 0.00 23 1007.2
20260503174223 63 265 10.0 18.0 0.00 0.00 0.00 23 1007.2
20260503173712 63 321 11.0 23.0 0.00 0.00 0.00 22 1007.3
20260503173216 63 292 11.0 23.0 0.00 0.00 0.00 22 1007.4
20260503172214 63 348 11.0 20.0 0.00 0.00 0.00 24 1007.4
20260503171712 63 319 10.0 20.0 0.00 0.00 0.00 25 1007.4
20260503171211 63 313 12.0 19.0 0.00 0.00 0.00 31 1007.5
20260503170712 62 324 12.0 21.0 0.00 0.00 0.00 31 1007.3
20260503170210 62 296 11.0 21.0 0.00 0.00 0.00 31 1007.4
20260503160201 61 307 12.0 20.0 0.00 0.00 0.00 37 1007.3
20260503150701 61 294 11.0 23.0 0.00 0.00 0.00 46 1007.0
20260503150202 61 338 11.0 19.0 0.00 0.00 0.00 46 1007.0
20260503140108 58 350 12.0 19.0 0.00 0.00 0.00 57 1006.9
20260503131104 55 342 9.0 19.0 0.00 0.00 0.00 61 1006.6
20260503130106 54 347 9.0 15.0 0.00 0.00 0.00 62 1006.6
20260503110529 40 53 0.0 2.0 0.00 0.00 0.00 87 1004.9
20260503081444 49 70 0.0 1.0 0.00 0.00 0.00 67 1004.8
20260503080946 49 70 1.0 3.0 0.00 0.00 0.00 66 1004.9
20260503080443 49 70 1.0 3.0 0.00 0.00 0.00 66 1005.0
20260503072942 51 79 1.0 2.0 0.00 0.00 0.00 62 1005.0
20260503072440 51 55 0.0 2.0 0.00 0.00 0.00 61 1005.1
20260503071441 52 56 2.0 5.0 0.00 0.00 0.00 60 1005.3
20260503070940 52 41 3.0 5.0 0.00 0.00 0.00 60 1005.4
20260503070440 52 26 2.0 4.0 0.00 0.00 0.00 60 1005.4
20260503054931 54 169 3.0 8.0 0.00 0.00 0.00 54 1005.7
20260503054432 54 161 3.0 6.0 0.00 0.00 0.00 54 1005.8
20260503053933 55 177 3.0 6.0 0.00 0.00 0.00 54 1005.8
20260503053432 55 171 3.0 8.0 0.00 0.00 0.00 54 1005.9
20260503052930 55 158 2.0 8.0 0.00 0.00 0.00 54 1005.9
20260503052431 55 176 2.0 8.0 0.00 0.00 0.00 54 1006.0
20260503051930 55 176 3.0 11.0 0.00 0.00 0.00 54 1006.0
20260503050930 55 166 3.0 6.0 0.00 0.00 0.00 54 1006.0
20260503050431 55 204 3.0 7.0 0.00 0.00 0.00 54 1006.3
20260503045930 55 158 3.0 7.0 0.00 0.00 0.00 54 1006.2
20260503045429 55 165 3.0 7.0 0.00 0.00 0.00 55 1006.3
20260503044930 55 163 4.0 8.0 0.00 0.00 0.00 55 1006.4
20260503044425 56 140 4.0 8.0 0.00 0.00 0.00 54 1006.6
20260503043918 56 136 4.0 8.0 0.00 0.00 0.00 53 1006.4
20260503043413 56 140 4.0 7.0 0.00 0.00 0.00 53 1006.6
20260503042909 56 136 4.0 9.0 0.00 0.00 0.00 53 1006.8
20260503042410 56 148 4.0 10.0 0.00 0.00 0.00 53 1006.8
20260503041910 56 127 4.0 10.0 0.00 0.00 0.00 53 1006.9
20260503040910 57 134 4.0 9.0 0.00 0.00 0.00 52 1007.1
20260503035407 57 165 2.0 4.0 0.00 0.00 0.00 51 1007.4
20260503034906 57 140 3.0 5.0 0.00 0.00 0.00 51 1007.5
20260503034406 57 143 3.0 5.0 0.00 0.00 0.00 51 1007.6
20260503033907 58 141 3.0 7.0 0.00 0.00 0.00 50 1007.7
20260503033403 58 148 3.0 7.0 0.00 0.00 0.00 50 1007.8
20260503032903 58 159 3.0 7.0 0.00 0.00 0.00 50 1007.9
20260503032401 58 139 3.0 7.0 0.00 0.00 0.00 49 1007.9
20260503031901 58 127 3.0 5.0 0.00 0.00 0.00 50 1007.9
20260503031402 58 138 3.0 6.0 0.00 0.00 0.00 49 1008.1
20260503030902 58 134 3.0 6.0 0.00 0.00 0.00 49 1008.2
20260503030402 59 126 3.0 6.0 0.00 0.00 0.00 48 1008.2
20260503025858 59 142 3.0 6.0 0.00 0.00 0.00 47 1008.2
20260503025352 60 145 2.0 5.0 0.00 0.00 0.00 46 1008.2
20260503024847 59 157 2.0 5.0 0.00 0.00 0.00 48 1008.3
20260503024341 59 153 2.0 3.0 0.00 0.00 0.00 47 1008.3
20260503023834 60 153 2.0 3.0 0.00 0.00 0.00 46 1008.4
20260503023331 60 154 1.0 3.0 0.00 0.00 0.00 46 1008.5
20260503022832 59 157 1.0 5.0 0.00 0.00 0.00 47 1008.5
20260503021831 60 138 3.0 5.0 0.00 0.00 0.00 46 1008.5
20260503021333 60 136 4.0 7.0 0.00 0.00 0.00 46 1008.5
20260503020831 60 139 4.0 7.0 0.00 0.00 0.00 46 1008.6
20260503015830 61 190 2.0 7.0 0.00 0.00 0.00 44 1009.0
20260503015328 61 224 2.0 6.0 0.00 0.00 0.00 44 1009.1
20260503014830 61 191 2.0 6.0 0.00 0.00 0.00 44 1009.1
20260503014328 61 182 3.0 7.0 0.00 0.00 0.00 43 1009.1
20260503013829 61 201 5.0 12.0 0.00 0.00 0.00 43 1009.1
20260503013329 61 209 5.0 12.0 0.00 0.00 0.00 43 1009.2
20260503012831 61 226 6.0 12.0 0.00 0.00 0.00 42 1009.3
20260503012329 62 224 6.0 12.0 0.00 0.00 0.00 42 1009.3
20260503010829 62 224 6.0 9.0 0.00 0.00 0.00 40 1009.5
20260503010323 62 239 6.0 12.0 0.00 0.00 0.00 40 1009.4
20260503005817 62 248 7.0 12.0 0.00 0.00 0.00 39 1009.4
20260503005310 63 248 9.0 16.0 0.00 0.00 0.00 39 1009.4
20260503004809 63 223 10.0 18.0 0.00 0.00 0.00 38 1009.5
20260503004310 63 238 11.0 24.0 0.00 0.00 0.00 38 1009.7
20260503003810 63 264 11.0 24.0 0.00 0.00 0.00 37 1009.5
20260503003311 63 260 9.0 23.0 0.00 0.00 0.00 36 1009.5
20260503002809 63 264 8.0 15.0 0.00 0.00 0.00 36 1009.4
20260503002307 64 236 7.0 16.0 0.00 0.00 0.00 36 1009.4
20260503001807 64 236 7.0 16.0 0.00 0.00 0.00 36 1009.4
20260503001313 64 241 6.0 16.0 0.00 0.00 0.00 37 1009.5
20260503000307 64 245 5.0 15.0 0.00 0.00 0.00 38 1009.7
20260502235806 64 253 6.0 15.0 0.00 0.00 0.00 37 1009.5
20260502235305 64 226 5.0 10.0 0.00 0.00 0.00 38 1009.7
20260502234805 64 251 5.0 14.0 0.00 0.00 0.00 37 1009.8
20260502234307 64 243 7.0 15.0 0.00 0.00 0.00 37 1009.7
20260502233803 64 266 7.0 15.0 0.00 0.00 0.00 36 1009.7
20260502233303 64 281 8.0 15.0 0.00 0.00 0.00 37 1009.8
20260502232804 64 302 6.0 15.0 0.00 0.00 0.00 37 1009.8
20260502232259 64 262 5.0 12.0 0.00 0.00 0.00 38 1009.9
20260502231255 65 244 9.0 19.0 0.00 0.00 0.00 38 1010.0
20260502230755 65 273 9.0 20.0 0.00 0.00 0.00 37 1010.1
20260502225756 65 265 6.0 11.0 0.00 0.00 0.00 37 1010.2
20260502224256 65 209 6.0 13.0 0.00 0.00 0.00 38 1010.2
20260502223754 65 271 8.0 14.0 0.00 0.00 0.00 38 1010.4
20260502223256 65 255 7.0 14.0 0.00 0.00 0.00 37 1010.3
20260502222753 65 275 7.0 14.0 0.00 0.00 0.00 37 1010.4
20260502222254 64 267 9.0 20.0 0.00 0.00 0.00 38 1010.6
20260502221753 65 245 10.0 20.0 0.00 0.00 0.00 38 1010.6
20260502221254 65 234 9.0 19.0 0.00 0.00 0.00 37 1010.4
20260502220755 65 234 7.0 19.0 0.00 0.00 0.00 37 1010.4
20260502220254 65 161 5.0 14.0 0.00 0.00 0.00 37 1010.5
20260502214755 65 228 7.0 15.0 0.00 0.00 0.00 37 1010.6
20260502214249 65 162 7.0 15.0 0.00 0.00 0.00 37 1010.6
20260502213749 65 194 5.0 11.0 0.00 0.00 0.00 37 1010.6
20260502213249 65 175 5.0 10.0 0.00 0.00 0.00 37 1010.7
20260502212750 65 198 6.0 14.0 0.00 0.00 0.00 36 1010.7
20260502212249 65 203 7.0 14.0 0.00 0.00 0.00 36 1010.7
20260502211749 65 234 7.0 14.0 0.00 0.00 0.00 36 1010.8
20260502211250 65 215 7.0 14.0 0.00 0.00 0.00 35 1010.9
20260502210750 65 188 6.0 13.0 0.00 0.00 0.00 36 1010.9
20260502210251 65 221 7.0 14.0 0.00 0.00 0.00 36 1011.1
20260502205245 65 232 9.0 15.0 0.00 0.00 0.00 36 1011.2
20260502204745 65 262 8.0 20.0 0.00 0.00 0.00 35 1011.4
20260502204245 65 245 9.0 20.0 0.00 0.00 0.00 35 1011.3
20260502203744 66 268 10.0 20.0 0.00 0.00 0.00 35 1011.4
20260502203245 66 213 10.0 20.0 0.00 0.00 0.00 35 1011.5
20260502202746 66 211 10.0 18.0 0.00 0.00 0.00 34 1011.6
20260502202245 65 223 10.0 18.0 0.00 0.00 0.00 35 1011.8
20260502201747 65 243 7.0 17.0 0.00 0.00 0.00 35 1012.0
20260502201242 65 157 7.0 17.0 0.00 0.00 0.00 34 1012.0
20260502200741 65 232 9.0 17.0 0.00 0.00 0.00 34 1012.1
20260502200241 64 202 10.0 16.0 0.00 0.00 0.00 35 1012.2
20260502195741 64 245 9.0 17.0 0.00 0.00 0.00 35 1012.3
20260502194740 66 219 8.0 18.0 0.00 0.00 0.00 35 1012.4